Location: Bichancourt
(49.5795°N, 3.2178°E)
Time: 06:24:30
(UTC+00:00)

Daily predictions for brighter satellites

Satellite Brightness Start Highest point End
(mag) Time Altitude Azimuth Time Altitude Azimuth Time Altitude Azimuth
Cosmos 1190 Rocket 4.2 17:47:22 10° SSW 17:52:36 82° WNW 17:57:50 10° NNE
NOSS 3-1 (A) 4.4 17:48:22 10° NW 17:55:44 76° SW 18:04:29 10° SSE
Cosmos 2369 4.3 17:51:57 10° S 17:57:08 37° ESE 18:02:20 10° NE
CZ-4C R/B 4.2 17:57:30 10° N 18:01:47 60° WNW 18:05:54 10° SSW
CZ-4 R/B 4.5 17:58:55 10° SSE 18:03:01 89° WSW 18:07:10 10° NNW
CZ-4B DEB 4.4 17:58:34 10° SSE 18:04:01 78° WSW 18:09:32 10° NNW
SL-16 R/B 3.8 18:06:47 10° ESE 18:08:34 11° E 18:10:21 10° ENE
USA 215 3.5 18:02:30 10° ENE 18:09:03 77° NNW 18:15:35 10° WSW
USA 186 3.7 18:07:08 10° E 18:09:06 15° ENE 18:11:04 10° NNE
Cosmos 1844 Rocket 4.3 18:09:38 10° N 18:13:38 19° NE 18:17:37 10° E
SL-4 R/B 2.4 18:09:17 10° WNW 18:13:41 72° N 18:18:03 12° E
Cosmos 1437 Rocket 4.5 18:12:30 10° ESE 18:14:08 12° E 18:15:45 10° ENE
Cosmos 1741 Rocket 4.5 18:10:13 10° S 18:15:06 39° ESE 18:19:58 10° NE
ARGOS Delta rocket 4.1 18:09:56 10° NNE 18:15:13 56° E 18:20:13 10° S
SKYMED 3 4.5 18:13:22 10° NNE 18:17:31 89° WNW 18:21:38 10° SSW
Timation 2 Rocket 4.1 18:11:04 10° NNW 18:17:34 62° NE 18:23:44 10° SE
BREEZE-M DEB (TANK) 4.3 18:16:55 10° SW 18:21:26 53° SE 18:38:57 10° ENE
Okean O Rocket 1.6 18:18:03 10° SSE 18:22:20 61° ENE 18:26:40 10° N
Cosmos 2219 4.3 18:18:52 10° NW 18:24:23 49° WSW 18:29:54 10° S
Nadezhda 4 Rocket 4.4 18:19:24 10° SSE 18:25:14 41° E 18:31:05 10° NNE
Cosmos 1814 Rocket 4.4 18:20:24 10° NNW 18:25:27 43° ENE 18:30:23 10° SE
Cosmos 1242 Rocket 2.4 18:24:28 10° S 18:28:02 77° E 18:31:36 10° NNE
Spot 1 3.9 18:24:19 10° NNE 18:28:39 86° ESE 18:32:46 10° SSW
BREEZE M DEB (TANK) 4.3 18:25:23 10° SSW 18:29:34 16° SSE 18:31:25 13° SE
Cosmos 1809 Rocket 4.4 18:24:16 10° S 18:30:12 61° E 18:36:12 10° NNE
SL-14 R/B 3.2 18:26:32 10° N 18:30:29 70° ENE 18:34:26 10° SSE
Cosmos 2263 Rocket 2.2 18:26:15 10° NNW 18:31:58 70° ENE 18:37:39 10° SE
Cosmos 1805 3.1 18:30:58 10° S 18:34:49 76° E 18:38:44 10° NNE
Cosmos 2360 4.5 18:29:11 10° SW 18:34:54 74° WNW 18:40:40 10° NNE
Cosmos 1674 Rocket 3.5 18:30:35 10° N 18:34:58 66° ENE 18:39:22 10° SSE
YAOGAN 1 2.6 18:31:51 10° SSE 18:36:11 84° WSW 18:40:32 10° NNW
Meteor 2-5 Rocket 4.3 18:31:47 10° N 18:36:52 35° ENE 18:41:16 13° SE
Cosmos 1726 2.2 18:34:58 10° S 18:38:30 50° E 18:42:04 10° NNE
COBE Rocket 4.1 18:33:37 10° S 18:38:31 77° W 18:43:18 10° NNW
OBJECT-B 1.1 18:38:57 26° E 18:39:32 29° ENE 18:41:52 10° N
H-2A R/B 4.0 18:39:28 16° ENE 18:40:03 16° ENE 18:42:29 10° NNE
Cosmos 2082 4.2 18:37:42 10° NW 18:43:22 62° WSW 18:49:00 10° SSE
IRIDIUM 106 4.3 18:40:41 10° SSE 18:45:49 63° E 18:51:00 10° N
Cosmos 1766 3.3 18:44:58 10° S 18:48:47 53° E 18:52:38 10° NNE
IRS-1C Rocket 4.5 18:46:16 15° SE 18:50:18 42° ENE 18:55:15 10° N
Cosmos 1025 Rocket 4.1 18:46:55 10° NNE 18:50:28 24° ENE 18:51:17 23° E
Cosmos 2084 Rocket 4.5 18:47:31 10° NNW 18:50:48 26° NNE 18:52:17 21° ENE
Cosmos 1697 Rocket 3.4 18:47:21 10° SW 18:52:51 55° NW 18:58:24 10° NNE
CSL-04 Debris 4.2 18:50:35 10° SSE 18:55:53 60° ENE 19:01:12 10° N
Cosmos 2221 Rocket 4.3 18:52:58 10° NNW 18:57:24 57° W 19:01:51 10° S
Cosmos 1975 Rocket 3.9 18:55:53 10° N 18:59:51 31° ENE 19:00:50 28° E
Landsat 7 4.3 19:00:02 25° ESE 19:02:11 40° ENE 19:06:36 10° N
IGS 5A 3.6 18:59:48 22° SE 19:02:13 52° ENE 19:06:15 10° N
Cosmos 1092 Rocket 4.3 18:56:20 10° SSE 19:02:14 44° E 19:08:07 10° NNE
Cosmos 1378 Rocket 4.0 18:59:47 10° NNW 19:04:09 65° W 19:08:27 10° S
Resurs 01 Rocket 2.8 19:05:25 24° ENE 19:05:45 24° ENE 19:09:20 10° N
Cosmos 968 Rocket 3.8 19:05:04 10° S 19:09:58 42° ESE 19:14:53 10° NE
ATLAS 2AS CENTAUR R/B 4.4 19:08:46 10° WNW 19:15:00 27° N 19:20:57 10° NE
Cosmos 1470 3.0 19:15:56 42° E 19:15:56 42° E 19:19:19 10° NNE
Cosmos 1733 Rocket 4.5 19:12:06 10° SW 19:16:18 41° WNW 19:20:32 10° N
ISS -2.7 19:19:05 10° W 19:22:13 36° SSW 19:22:45 34° S
Cosmos 2084 4.1 19:19:00 10° WSW 19:22:41 46° NW 19:25:48 14° NNE
Cosmos 2322 Rocket 3.8 19:19:24 10° SSE 19:27:51 17° NE 19:29:24 10° NE
Ariane Rocket 4.1 19:25:15 27° ENE 19:25:23 27° ENE 19:29:36 10° N
CSL-04 Rocket 3.6 19:21:40 16° SSE 19:25:57 90° ENE 19:31:24 10° NNW
Okean-O 2.5 19:24:10 28° SSE 19:26:30 86° ENE 19:30:58 10° NNW
Terra 4.1 19:28:16 10° NE 19:28:16 10° NE 19:28:36 10° NE
Resurs 1-3 3.5 19:26:16 40° SSE 19:27:46 72° ENE 19:32:10 10° N
CZ-4 R/B 3.1 19:24:10 10° SSW 19:27:59 34° W 19:31:49 10° NNW
Gbstr 26 Del rocket 4.4 19:21:52 10° SW 19:29:32 71° SSE 19:34:41 25° ENE
SJ-6B 2.9 19:30:23 32° S 19:31:57 69° WSW 19:35:43 10° NNW
Cosmos 1570 Rocket 4.0 19:26:56 10° NNW 19:32:14 86° WSW 19:34:49 31° SSE
Cosmos 1980 Rocket 3.0 19:27:36 10° SW 19:33:07 53° NW 19:38:37 10° NNE
Meteor 1-12 Rocket 4.5 19:29:09 10° SSW 19:35:08 77° WNW 19:41:12 10° N
JB-3 4.2 19:34:01 10° NNE 19:38:07 76° ESE 19:38:37 64° SSE
Cosmos 1627 Rocket 4.3 19:32:12 10° S 19:38:16 70° E 19:44:22 10° NNE
USA 186 2.9 19:40:04 32° SW 19:41:03 43° W 19:44:16 10° NNW
deb Chang Zheng 4 3.3 19:41:18 70° ENE 19:41:20 70° ENE 19:45:28 10° N
Cosmos 1428 Rocket 4.4 19:39:30 10° S 19:45:41 86° E 19:51:58 10° N
Cosmos 2195 Rocket 4.4 19:39:37 10° S 19:45:50 89° ESE 19:52:11 10° N
Cosmos 2278 4.0 19:42:42 10° SW 19:48:22 69° WNW 19:54:04 10° NNE
Meteor 1-24 Rocket 3.6 19:43:30 10° NNW 19:48:49 77° W 19:51:25 31° S
Cosmos 1437 Rocket 3.2 19:46:04 10° SSW 19:49:47 58° WNW 19:53:29 10° N
SL-16 R/B 2.0 19:45:58 10° SSW 19:51:34 69° ESE 19:57:14 10° NNE
USA 215 4.0 19:47:18 20° ENE 19:51:42 48° N 19:57:55 10° W
SL-4 R/B 2.5 19:48:46 10° WNW 19:53:13 56° SSW 19:53:27 56° SSW
Cosmos 2208 Rocket 4.2 19:50:15 10° NNW 19:55:36 71° WSW 19:57:21 43° S
Cosmos 1844 Rocket 2.6 19:52:51 10° NNW 19:58:34 73° ENE 19:59:17 64° ESE
Okean O Rocket 4.4 19:56:17 10° SW 19:59:06 17° W 20:01:56 10° NW
Meteor 1-22 Rocket 4.3 19:55:44 10° SSW 20:01:06 74° WNW 20:06:43 10° N
USA 81 4.2 19:56:19 10° N 20:01:35 71° W 20:03:45 36° SSW
Cosmos 2278 Rocket 3.9 19:58:43 10° N 20:02:41 19° NE 20:03:03 19° NE
Cosmos 2026 Rocket 3.9 19:57:17 10° SSW 20:03:20 81° W 20:09:27 10° N
Cosmos 1782 Rocket 4.0 20:06:54 41° SW 20:08:08 58° WNW 20:12:28 10° N
Cosmos 1553 Rocket 3.9 20:01:58 10° N 20:08:20 81° E 20:09:43 57° SSE
MOS 1 4.1 20:08:42 67° SSE 20:09:31 87° ENE 20:15:14 10° NNW
OBJECT-B 3.8 20:09:48 11° W 20:09:48 11° W 20:10:27 10° WNW
Cosmos 1943 Rocket 4.5 20:10:46 10° N 20:12:14 11° NNE 20:13:27 10° NE
H-2A R/B 3.3 20:15:56 46° NW 20:15:56 46° NW 20:18:57 10° NNW
Cosmos 2263 Rocket 4.3 20:11:04 10° NW 20:15:22 22° WSW 20:19:38 10° SSW
USA 281 3.7 20:16:22 42° ENE 20:16:47 43° NE 20:22:54 10° NNW
Cosmos 1844 3.5 20:14:34 10° NNW 20:20:06 87° NNE 20:20:06 87° NNE
Cosmos 1025 Rocket 4.2 20:24:11 10° NNW 20:28:11 38° W 20:28:11 38° W
MetOp-B 4.3 20:31:47 66° N 20:31:47 66° N 20:36:23 10° NNW
SPOT 1/Viking Rocket 3.8 20:32:06 63° W 20:32:06 63° W 20:37:09 10° NNW
SPOT 3 Rocket 4.3 20:37:48 44° N 20:37:48 44° N 20:41:22 10° N
Cosmos 2360 Rocket 4.4 20:46:44 14° NNE 20:46:44 14° NNE 20:47:28 10° NNE
Resurs 01 Rocket 3.0 20:42:59 38° WNW 20:42:59 38° WNW 20:46:16 10° NNW
Ariane Rocket 4.2 21:05:27 40° NW 21:05:27 40° NW 21:09:03 10° NNW
Terra 3.8 21:07:10 23° N 21:07:10 23° N 21:09:00 10° N
ATLAS 2AS CENTAUR R/B 3.9 21:01:36 10° NW 21:08:07 33° NNE 21:09:00 32° NE
Cosmos 2322 Rocket 3.2 21:09:31 42° NNW 21:09:31 42° NNW 21:13:48 10° NNE
Gbstr 26 Del rocket 4.5 21:09:08 10° W 21:17:10 78° N 21:17:10 78° N
NOSS 3-4 (A) 4.0 21:12:44 10° NW 21:18:30 65° N 21:18:30 65° N
NOSS 3-4 (C) 4.0 21:12:50 10° NW 21:18:36 64° N 21:18:36 64° N
USA 215 3.8 21:34:39 51° N 21:34:39 51° N 21:40:25 10° WNW
SL-16 R/B 4.0 21:31:23 10° WSW 21:36:11 28° NW 21:41:02 10° NNE
Cosmos 2278 Rocket 3.9 21:42:08 10° NNW 21:44:53 29° NNW 21:44:53 29° NNW
Cosmos 1943 Rocket 4.3 21:52:48 10° NNW 21:54:57 21° N 21:54:57 21° N
USA 281 4.3 22:03:15 38° WNW 22:03:15 38° WNW 22:07:35 10° NW
Cosmos 2369 Rocket 4.5 21:57:32 10° N 22:00:00 17° NNE 22:00:00 17° NNE
Cosmos 2360 Rocket 4.4 22:28:28 20° NNW 22:28:28 20° NNW 22:31:03 10° NNE
ATLAS 2AS CENTAUR R/B 4.2 22:52:56 10° NW 22:56:24 31° NW 22:56:24 31° NW
